TNCCSVMI

Guest
Details From TNCC - Curacao Hato
To SVMI - Caracas Simon Bolivar Intl
Flight Number -
Tags generated
Created
Modified
Stats Distance 150 nm / 278 km
Max Altitude 15,600 ft / 4,755 m
Waypoints 3
Social Downloads 2
Likes 0
Share VATSIM

Download

Looking for another format? Having issues loading an existing format? Contact us
Advertisement - Login to hide

Notes

Basic altitude profile: - Ascent Rate: 2000ft/min - Ascent Speed: 250kts - Cruise Altitude: 22000ft - Cruise Speed: 446kts - Descent Rate: 2000ft/min - Descent Speed: 250kts Options: - Use NATs: yes - Use PACOTS: yes - Use low airways: no - Use high airways: yes

Route

TNCC AVELO SVMI

ID Type Via Altitude Latitude Longitude Leg Dist Tot Dist Heading (true) Name
O TNCC APT - 0 ft / 0 m 12.18885˚ -68.95980˚ - 0 nm - Curacao Hato
AVELO FIX - 15,600 ft / 4,755 m 11.41806˚ -68.01028˚ 72 nm 72 nm 130° / 130° -
O SVMI APT - 0 ft / 0 m 10.60312˚ -66.99059˚ 77 nm 150 nm 129° / 129° Caracas Simon Bolivar Intl

Altitude Profile

Advertisement - Login to hide

TNCC

Details ICAO TNCC (CUR)
Name Curacao Hato
Region Caribbean Netherlands, Aruba, Curaçao, Sint Maarten
Timezone Unknown (UTC+0.0)
Stats Elevation 29 ft / 9 m (AMSL)
Location 12.188853° -68.959803°
Runways 1
Magnetic Variation 11.332° W

METAR

TNCC 171400Z 10012KT 9999 FEW019 29/21 Q1015 NOSIG

Decode

TAF

Not found

Departure Runways

ID Width Length Bearing (true) Bearing (mag) Surface Threshold Offset Overrun Length
11 197 ft / 60 m 11,197 ft / 3,413 m 102.24° 113.57° Asphalt 300 ft / 91 m 0 ft / 0 m
29 197 ft / 60 m 11,197 ft / 3,413 m 282.24° 293.57° Asphalt 300 ft / 91 m 200 ft / 61 m

SVMI

Details ICAO SVMI (CCS)
Name Caracas Simon Bolivar Intl
Region Venezuela
Timezone America/Caracas (UTC-4.0)
Stats Elevation 235 ft / 72 m (AMSL)
Location 10.603119° -66.990585°
Runways 2
Magnetic Variation 12.289° W

METAR

SVMI 171400Z 05005KT 9999 FEW016 30/22 Q1013

Decode

TAF

Not found

Destination Runways

ID Width Length Bearing (true) Bearing (mag) Surface Threshold Offset Overrun Length
09 145 ft / 44 m 9,825 ft / 2,995 m 75.92° 88.21° Asphalt 0 ft / 0 m 0 ft / 0 m
10 148 ft / 45 m 11,472 ft / 3,497 m 88.14° 100.43° Asphalt 0 ft / 0 m 200 ft / 61 m
27 145 ft / 44 m 9,825 ft / 2,995 m 255.92° 268.21° Asphalt 0 ft / 0 m 0 ft / 0 m
28 148 ft / 45 m 11,472 ft / 3,497 m 268.15° 280.44° Asphalt 0 ft / 0 m 200 ft / 61 m

Approach Navaids

Runway Type Ident Frequency Range Bearing (true) Bearing (mag) Slope Elevation
10 Localiser IMIQ 110.10 MHz 18 nm / 33 km 87.90° 100.19° - 235 ft / 72 m (AMSL)
10 Glidescope IMIQ 110.10 MHz 10 nm / 19 km 88.14° 100.43° 3.00° 235 ft / 72 m (AMSL)
10 DME IMIQ 110.10 MHz 18 nm / 33 km - - - 235 ft / 72 m (AMSL)

Popular Alternatives